This demonstration page uses our WeatherBlox Daily Observations layout. Learn more.

Left ArrowRight Arrow

Hourly Observations for May 7, 2017

Temp ( °F °C ) Dew Point ( °F °C ) Humidity (%) Winds ( mph kmh ) Pressure ( in mb ) Visibility ( mi km ) Precip ( " mm )
12:56 am 00:56 Clear 49 9.5 42 5.5 76 76 Calm 29.93 1014 10 16 0.00 0.00
1:56 am 01:56 Clear 50 9.8 41 4.8 71 71 Calm 29.94 1014 10 16 0.00 0.00
2:56 am 02:56 Clear 48 8.7 41 5.1 78 78 Calm 29.93 1014 10 16 0.00 0.00
3:56 am 03:56 Clear 47 8.4 41 5.1 80 80 Calm 29.93 1014 10 16 0.00 0.00
4:56 am 04:56 Clear 46 7.7 41 5.2 84 84 Calm 29.94 1014 10 16 0.00 0.00
5:56 am 05:56 Clear 44 6.8 41 4.8 87 87 Calm 29.96 1014 10 16 0.00 0.00
6:56 am 06:56 Sunny 45 7.2 41 5.2 87 87 Calm 29.98 1015 10 16 0.00 0.00
7:56 am 07:56 Sunny 57 14.1 46 7.6 65 65 ESE 5 7 29.98 1015 10 16 0.00 0.00
8:56 am 08:56 Sunny 63 17.2 44 6.7 50 50 SSE 9 15 29.99 1016 10 16 0.00 0.00
9:56 am 09:56 Sunny 68 20.1 44 6.8 42 42 SSE 13 20 29.98 1015 10 16 0.00 0.00
10:56 am 10:56 Sunny 72 22.3 44 6.5 36 36 SSE 15 24 29.96 1015 10 16 0.00 0.00
11:56 am 11:56 Sunny 76 24.2 44 6.4 32 32 SSE 14 22 29.95 1014 10 16 0.00 0.00
12:56 pm 12:56 Sunny 78 25.4 47 8.4 34 34 SE 14 22 29.88 1012 10 16 0.00 0.00
1:56 pm 13:56 Sunny 80 26.5 47 8.4 32 32 SSE 14 22 29.85 1011 10 16 0.00 0.00
2:56 pm 14:56 Sunny 81 27.4 48 8.8 31 31 SSE 15 24 29.83 1010 10 16 0.00 0.00
3:56 pm 15:56 Mostly Sunny 82 27.7 48 9 31 31 SSE 18 30 29.80 1009 10 16 0.00 0.00
4:56 pm 16:56 Mostly Sunny 84 28.9 48 9.1 29 29 SSE 14 22 29.77 1008 10 16 0.00 0.00
5:56 pm 17:56 Sunny 83 28.5 48 8.7 29 29 SSE 13 20 29.77 1008 10 16 0.00 0.00
6:56 pm 18:56 Mostly Sunny 82 27.6 49 9.4 32 32 SSE 15 24 29.74 1007 10 16 0.00 0.00
7:56 pm 19:56 Mostly Sunny 78 25.8 49 9.6 36 36 SSE 10 17 29.77 1008 10 16 0.00 0.00
8:56 pm 20:56 Partly Cloudy 73 22.9 49 9.3 42 42 SE 8 13 29.77 1008 10 16 0.00 0.00
9:56 pm 21:56 Mostly Cloudy 72 22.1 50 9.9 46 46 SE 12 19 29.80 1009 10 16 0.00 0.00
10:56 pm 22:56 Mostly Clear 70 21.2 51 10.4 50 50 SE 13 20 29.85 1011 10 16 0.00 0.00
11:56 pm 23:56 Mostly Cloudy 69 20.4 51 10.5 53 53 SE 9 15 29.85 1011 10 16 0.00 0.00

Powered by AerisWeather